Location: Most
(50.5330°N, 13.6500°E)
Time: 15:13:37
(UTC+02:00)

ISS - Visible Passes

Search period start: 18 September 2018 00:00
Search period end: 28 September 2018 00:00
Orbit: 402 x 408 km, 51.6° (Epoch: 18 September)

Date Brightness Start Highest point End Pass type
(mag) Time Alt. Az. Time Alt. Az. Time Alt. Az.
22 Sep -1.9 20:27:05 10° S 20:28:32 16° SSE 20:28:32 16° SSE visible
23 Sep -1.6 19:36:43 10° SSE 19:37:34 11° SE 19:38:26 10° ESE visible
23 Sep -2.1 21:10:15 10° SW 21:11:51 25° SW 21:11:51 25° SW visible
24 Sep -2.9 20:18:33 10° SSW 20:21:30 31° SSE 20:22:16 27° ESE visible
24 Sep -0.8 21:54:30 10° WSW 21:54:57 13° WSW 21:54:57 13° WSW visible
25 Sep -2.2 19:27:06 10° SSW 19:29:38 20° SE 19:32:09 10° E visible
25 Sep -3.4 21:02:28 10° WSW 21:05:12 56° SW 21:05:12 56° SW visible
26 Sep -3.6 20:10:30 10° SW 20:13:44 53° SSE 20:15:20 26° E visible
26 Sep -1.2 21:46:55 10° W 21:48:00 19° W 21:48:00 19° W visible
27 Sep -3.8 20:54:48 10° W 20:58:02 80° NW 20:58:02 80° NW visible
